Search for airport 
image banner adimage banner ad
image banner ad

FQPB - Pemba / National

Located in Pemba, Mozambique

ICAO - FQPB, IATA - POL

Data provided by Airmate  

General information

Coordinates: S12°59'30" E40°31'27"
Elevation is 331 feet MSL.
 
View others Airports in Cabo Delgado Province

Operational data

Open for public use
Current time UTC:
Current local time:
Weather
METAR: FQPB 222200Z 17011KT 9999 BKN020 25/22 Q1014
TAF: TAF FQPB 221600Z 2218/2318 15010KT 9999 FEW020 TX30/2313Z TN22/2303Z BECMG 2300/2302 21008KT BECMG 2306/2308 11008KT
View NOTAMs / SUP AIP / TFR affecting this airport [VIEW]
Communications frequencies: [VIEW]

Runways:

RWY identifierQFULength (ft)Width (ft)SurfaceLDA (ft)
0878°262598ASP
2600
175906148
355906148

Airport contact information

Address: Pemba Mozambique

Satellite view of FQPB